| time (UTC) | temp C | wind direction | speed KPH | gust KPH | rain 1hr cm | rain 24hr cm | rain mn cm | humidity % | barometer mb |
| 20260505191611 | 23 | 0.0 | 0.0 | 0.00 | 0.00 | 0.00 | 41 | 1003.1 | |
| 20260505190052 | 23 | 0.0 | 0.0 | 0.00 | 0.00 | 0.00 | 44 | 1003.3 | |
| 20260505184551 | 22 | 0.0 | 0.0 | 0.00 | 0.00 | 0.00 | 47 | 1003.6 | |
| 20260505183049 | 22 | 0.0 | 0.0 | 0.00 | 0.00 | 0.00 | 49 | 1004.0 | |
| 20260505181549 | 22 | 0.0 | 0.0 | 0.00 | 0.00 | 0.00 | 49 | 1004.2 | |
| 20260505180050 | 21 | 0.0 | 0.0 | 0.00 | 0.00 | 0.00 | 57 | 1004.5 | |
| 20260505174547 | 21 | 0.0 | 0.0 | 0.00 | 0.00 | 0.00 | 58 | 1004.6 | |
| 20260505173043 | 22 | 0.0 | 0.0 | 0.00 | 0.00 | 0.00 | 47 | 1004.7 | |
| 20260505171547 | 22 | 0.0 | 0.0 | 0.00 | 0.00 | 0.00 | 48 | 1004.7 | |
| 20260505164543 | 23 | 0.0 | 0.0 | 0.00 | 0.00 | 0.00 | 46 | 1004.5 | |
| 20260505163039 | 23 | 0.0 | 0.0 | 0.00 | 0.00 | 0.00 | 46 | 1005.0 | |
| 20260505161537 | 23 | 0.0 | 0.0 | 0.00 | 0.00 | 0.00 | 48 | 1005.1 | |
| 20260505153028 | 21 | 0.0 | 0.0 | 0.00 | 0.00 | 0.00 | 53 | 1005.3 | |
| 20260505151526 | 21 | 0.0 | 0.0 | 0.00 | 0.00 | 0.00 | 51 | 1005.2 | |
| 20260505124551 | 14 | 0.0 | 0.0 | 0.00 | 0.00 | 0.00 | 76 | 1006.1 | |
| 20260505123050 | 13 | 0.0 | 0.0 | 0.00 | 0.00 | 0.00 | 79 | 1006.2 | |
| 20260505121601 | 14 | 0.0 | 0.0 | 0.00 | 0.00 | 0.00 | 79 | 1006.4 | |
| 20260505120046 | 14 | 0.0 | 0.0 | 0.00 | 0.00 | 0.00 | 76 | 1006.4 | |
| 20260505114544 | 14 | 0.0 | 0.0 | 0.00 | 0.00 | 0.00 | 68 | 1006.5 | |
| 20260505113041 | 14 | 0.0 | 0.0 | 0.00 | 0.00 | 0.00 | 68 | 1006.4 | |
| 20260505111538 | 13 | 0.0 | 0.0 | 0.00 | 0.00 | 0.00 | 71 | 1006.3 | |
| 20260505101523 | -17 | 0.0 | 0.0 | 0.00 | 0.00 | 0.00 | 1005.7 | ||
| 20260505100021 | -17 | 0.0 | 0.0 | 0.00 | 0.00 | 0.00 | 1005.6 | ||
| 20260505094514 | -17 | 0.0 | 0.0 | 0.00 | 0.00 | 0.00 | 1005.5 | ||
| 20260505093020 | -17 | 0.0 | 0.0 | 0.00 | 0.00 | 0.00 | 1005.4 | ||
| 20260505091506 | 12 | 0.0 | 0.0 | 0.00 | 0.00 | 0.00 | 68 | 1005.4 | |
| 20260505090003 | 12 | 0.0 | 0.0 | 0.00 | 0.00 | 0.00 | 67 | 1005.3 | |
| 20260505084501 | 13 | 0.0 | 0.0 | 0.00 | 0.00 | 0.00 | 67 | 1005.3 | |
| 20260505083001 | 13 | 0.0 | 0.0 | 0.00 | 0.00 | 0.00 | 66 | 1005.2 | |
| 20260505081603 | 13 | 0.0 | 0.0 | 0.00 | 0.00 | 0.00 | 66 | 1005.4 | |
| 20260505080058 | 13 | 0.0 | 0.0 | 0.00 | 0.00 | 0.00 | 65 | 1005.5 | |
| 20260505074558 | 13 | 0.0 | 0.0 | 0.00 | 0.00 | 0.00 | 65 | 1005.5 | |
| 20260505073058 | 13 | 0.0 | 0.0 | 0.00 | 0.00 | 0.00 | 64 | 1005.3 | |
| 20260505071556 | 13 | 0.0 | 0.0 | 0.00 | 0.00 | 0.00 | 63 | 1005.4 | |
| 20260505070054 | 13 | 0.0 | 0.0 | 0.00 | 0.00 | 0.00 | 62 | 1005.6 | |
| 20260505064554 | 13 | 0.0 | 0.0 | 0.00 | 0.00 | 0.00 | 63 | 1005.7 | |
| 20260505063052 | 13 | 0.0 | 0.0 | 0.00 | 0.00 | 0.00 | 62 | 1005.7 | |
| 20260505061553 | 13 | 0.0 | 0.0 | 0.00 | 0.00 | 0.00 | 62 | 1005.7 | |
| 20260505060050 | 13 | 0.0 | 0.0 | 0.00 | 0.00 | 0.00 | 62 | 1005.8 | |
| 20260505054550 | 13 | 0.0 | 0.0 | 0.00 | 0.00 | 0.00 | 61 | 1005.8 | |
| 20260505053052 | 13 | 0.0 | 0.0 | 0.00 | 0.00 | 0.00 | 62 | 1005.9 | |
| 20260505051548 | 13 | 0.0 | 0.0 | 0.00 | 0.00 | 0.00 | 62 | 1005.9 | |
| 20260505041544 | 13 | 0.0 | 0.0 | 0.00 | 0.00 | 0.00 | 61 | 1005.7 | |
| 20260505040041 | 13 | 0.0 | 0.0 | 0.00 | 0.00 | 0.00 | 60 | 1005.8 | |
| 20260505034541 | 13 | 0.0 | 0.0 | 0.00 | 0.00 | 0.00 | 60 | 1005.8 | |
| 20260505033102 | 13 | 0.0 | 0.0 | 0.00 | 0.00 | 0.00 | 59 | 1005.7 | |
| 20260505031542 | 13 | 0.0 | 0.0 | 0.00 | 0.00 | 0.00 | 59 | 1005.7 | |
| 20260505030038 | 13 | 0.0 | 0.0 | 0.00 | 0.00 | 0.00 | 58 | 1005.9 | |
| 20260505024537 | 13 | 0.0 | 0.0 | 0.00 | 0.00 | 0.00 | 58 | 1006.0 | |
| 20260505023047 | 13 | 0.0 | 0.0 | 0.00 | 0.00 | 0.00 | 58 | 1006.2 | |
| 20260505021537 | 13 | 0.0 | 0.0 | 0.00 | 0.00 | 0.00 | 57 | 1006.4 | |
| 20260505020039 | 14 | 0.0 | 0.0 | 0.00 | 0.00 | 0.00 | 56 | 1006.3 | |
| 20260505014536 | 14 | 0.0 | 0.0 | 0.00 | 0.00 | 0.00 | 54 | 1006.2 | |
| 20260505013035 | 15 | 0.0 | 0.0 | 0.00 | 0.00 | 0.00 | 53 | 1006.1 | |
| 20260505011535 | 15 | 0.0 | 0.0 | 0.00 | 0.00 | 0.00 | 53 | 1006.0 | |
| 20260505010037 | 15 | 0.0 | 0.0 | 0.00 | 0.00 | 0.00 | 53 | 1005.9 | |
| 20260505004543 | 15 | 0.0 | 0.0 | 0.00 | 0.00 | 0.00 | 51 | 1005.8 | |
| 20260505003035 | 16 | 0.0 | 0.0 | 0.00 | 0.00 | 0.00 | 51 | 1005.8 | |
| 20260505001533 | 16 | 0.0 | 0.0 | 0.00 | 0.00 | 0.00 | 49 | 1005.6 | |
| 20260505000034 | 17 | 0.0 | 0.0 | 0.00 | 0.00 | 0.00 | 48 | 1005.5 | |
| 20260504234541 | 17 | 0.0 | 0.0 | 0.00 | 0.00 | 0.00 | 46 | 1005.4 | |
| 20260504233034 | 18 | 0.0 | 0.0 | 0.00 | 0.00 | 0.00 | 44 | 1005.2 | |
| 20260504231541 | 18 | 0.0 | 0.0 | 0.00 | 0.00 | 0.00 | 41 | 1005.3 | |
| 20260504230029 | 20 | 0.0 | 0.0 | 0.00 | 0.00 | 0.00 | 40 | 1005.1 | |
| 20260504224529 | 20 | 0.0 | 0.0 | 0.00 | 0.00 | 0.00 | 40 | 1005.1 | |
| 20260504223028 | 20 | 0.0 | 0.0 | 0.00 | 0.00 | 0.00 | 39 | 1005.1 | |
| 20260504221527 | 20 | 0.0 | 0.0 | 0.00 | 0.00 | 0.00 | 38 | 1005.1 | |
| 20260504220026 | 20 | 0.0 | 0.0 | 0.00 | 0.00 | 0.00 | 39 | 1005.1 | |
| 20260504214533 | 20 | 0.0 | 0.0 | 0.00 | 0.00 | 0.00 | 39 | 1005.0 | |
| 20260504213026 | 20 | 0.0 | 0.0 | 0.00 | 0.00 | 0.00 | 38 | 1005.2 | |
| 20260504211521 | 20 | 0.0 | 0.0 | 0.00 | 0.00 | 0.00 | 39 | 1005.4 | |
| 20260504210019 | 20 | 0.0 | 0.0 | 0.00 | 0.00 | 0.00 | 39 | 1005.5 | |
| 20260504204537 | 20 | 0.0 | 0.0 | 0.00 | 0.00 | 0.00 | 37 | 1005.8 | |
| 20260504203015 | 20 | 0.0 | 0.0 | 0.00 | 0.00 | 0.00 | 36 | 1005.9 | |
| 20260504201513 | 20 | 0.0 | 0.0 | 0.00 | 0.00 | 0.00 | 39 | 1006.1 | |
| 20260504200014 | 20 | 0.0 | 0.0 | 0.00 | 0.00 | 0.00 | 40 | 1006.4 | |
| 20260504194512 | 20 | 0.0 | 0.0 | 0.00 | 0.00 | 0.00 | 36 | 1006.5 | |
| 20260504193017 | 20 | 0.0 | 0.0 | 0.00 | 0.00 | 0.00 | 37 | 1006.7 |